Location: Avon School (historical)
(37.7514°N, 90.2201°W)
Time: 02:46:42
(UTC+00:00)

Explorer 7 - Pass Details

Date: 07 November 2024
Orbit: 456 x 598 km, 50.3° (Epoch: 03 December)

Event Time Altitude Azimuth Distance (km) Brightness Sun altitude
Exits shadow 10:41:26 33° 188° (S) 899 7.8 -22.3°
Maximum altitude 10:42:46 48° 137° (SE) 709 7.6 -22.1°
Drops below altitude 10° 10:46:50 10° 62° (ENE) 1,846 10.3 -21.3°
Sets 10:49:12 0° 57° (ENE) 2,770 11.2 -20.8°
